Regional Weather Roundup
Issued by NWS Wakefield, VA

Home | Current Version | Previous Version | Text Only | Print | Product List | Glossary On
Versions: 1 2 3 4 5 6 7 8 9 10 11 12 13 14 15 16 17 18 19 20 21 22 23 24 25 26 27 28 29 30 31 32 33 34 35 36 37 38 39 40 41 42 43 44 45 46 47 48 49 50
931
ASUS41 KAKQ 242015
RWRAKQ

REGIONAL WEATHER ROUNDUP
NATIONAL WEATHER SERVICE WAKEFIELD VA
400 PM EDT TUE MAY 24 2016

Note: "fair" indicates few or no clouds below 12,000 feet with no
significant weather and/or obstructions to visibility. * = Denotes
station may not report precipitation (e.g., rain,snow,etc.),
thunder or fog.

VAZ042-051-052>054-056-242100-
NORTHERN VIRGINIA

CITY           SKY/WX    TMP DP  RH WIND       PRES   REMARKS
WASH NATIONAL  FAIR      83  49  30 NW15G24   29.99S
DULLES         FAIR      82  50  32 W7        29.99F
FORT BELVOIR   FAIR      83  48  29 NW15      29.99S
QUANTICO       FAIR      83  50  31 N9        30.00S
FREDERICKSBRG* FAIR      81  52  36 W6        30.00S
STAFFORD*      FAIR      80  47  31 NW8       30.05S
WARRENTON      FAIR      84  40  21 W5        30.00S
CULPEPER*      FAIR      83  51  33 W7        30.01S
MANASSAS*      SUNNY     82  48  30 NW10      30.00S
LEESBURG*      FAIR      81  54  39 NW7       30.00F
WINCHESTER     PTSUNNY   79  48  34 NW7       30.01F
FRONT ROYAL*   FAIR      81  52  36 W7        30.01S
LURAY*         FAIR      81  48  32 NW12G20   30.03S
$$

VAZ048-049-060>072-079>083-242100-
CENTRAL AND SOUTH CENTRAL VIRGINIA

CITY           SKY/WX    TMP DP  RH WIND       PRES   REMARKS
RICHMOND       FAIR      82  51  34 MISG      30.02F
CHESTERFIELD*  FAIR      82  52  34 W8G16     30.04F
PETERSBURG*    PTSUNNY   82  52  34 CALM      30.04S
HANOVER        FAIR      81  51  35 NW8       30.03F
TAPPAHANNOCK*  FAIR      83  49  31 W6        30.02S
QUINTON*       FAIR      81  50  33 NW9       30.01F
CHARLOTTSVILLE FAIR      83  51  33 VRB5      30.03S
GORDONSVILLE*  FAIR      82  49  32 W3        30.02S
ORANGE*        PTSUNNY   81  46  30 SW12      30.04R
LOUISA*        FAIR      84  55  37 W3        30.01F
BUMPASS*       FAIR      79  53  40 CALM      30.02S
FARMVILLE*     PTSUNNY   83  46  26 SW6       30.03F
CREWE*         FAIR      81  57  44 SW7       30.04F
FORT PICKETT*  NOT AVBL
CHASE CITY*    FAIR      80  53  40 W5        30.06F
CLARKSVILLE*   FAIR      81  55  41 SW7       30.06F
SOUTH HILL*    CLOUDY    77  57  49 SW9       30.12S
LAWRENCEVILLE* FAIR      78  57  47 W5        30.05S
EMPORIA*       FAIR      81  55  41 W7        30.05F
$$

VAZ088>098-242100-
SOUTHEAST VIRGINIA

CITY           SKY/WX    TMP DP  RH WIND       PRES   REMARKS
NORFOLK        FAIR      81  54  39 W12G17    30.02S
VIRGINIA BEACH FAIR      85  50  29 NW14G20   30.01S
NORFOLK NAVAL  FAIR      81  56  42 VRB6      30.03F
WEST POINT*    FAIR      82  47  30 SW6       30.03S
SALUDA*        FAIR      80  53  40 NW5       30.00F
NEWPORT NEWS   FAIR      81  53  37 W15G21    30.01F
LANGLEY AFB    FAIR      82  53  36 W9        30.01F
FORT EUSTIS    FAIR      81  68  64 W10       30.00F
WILLIAMSBURG*  FAIR      84  55  37 W9        30.02F
HR EXEC AP*    FAIR      82  59  44 NW6       30.03F
FRANKLIN*      FAIR      82  55  40 W5        30.03F
US460-WAKEFLD  FAIR      83  51  33 W8        30.02F
$$

VAZ020-022-025-037-045-242100-
WEST CENTRAL AND SOUTHWEST VIRGINIA

CITY           SKY/WX    TMP DP  RH WIND       PRES   REMARKS
STAUNTON*      FAIR      77  47  35 N3        30.07S
WAYNESBORO*    CLOUDY    75  51  43 SW3       30.07S
HOT SPRINGS VA FAIR      67  45  45 W9        30.17S
LYNCHBURG      FAIR      79  53  40 SW8G17    30.07F
DANVILLE       FAIR      80  54  40 W8        30.08F
SOUTH BOSTON*  FAIR      79  52  38 W5        30.07F
MARTINSVILLE   FAIR      79  53  41 E5        30.11F
ROANOKE        FAIR      80  50  34 NW13      30.10F
BLACKSBURG     FAIR      75  50  41 W6        30.16F
DUBLIN*        FAIR      76  46  34 CALM      30.15F
MARION*        FAIR      74  52  46 SW8       30.19F
HILLSVILLE*    FAIR      73  46  37 NW7       30.16S
RICHLANDS*     FAIR      73  57  57 SE3       30.18S
WISE*          FAIR      75  36  23 CALM      30.19S
ABINGDON*      FAIR      76  48  36 W8        30.16F
$$

MDZ021>025-VAZ099-100-242100-
SOUTHERN MARYLAND AND THE DELMARVA PENINSULA

CITY           SKY/WX    TMP DP  RH WIND       PRES   REMARKS
PATUXENT RIVER PTSUNNY   76  56  49 SE8       29.99S
BAY BRIDGE APT SUNNY     81  50  34 SW3       29.97R
LEONARDTOWN    MOSUNNY   81  46  30 W12       30.01R
DOVER          MOSUNNY   79  58  48 W10       29.93F
GEORGETOWN     SUNNY     78  50  37 W6        29.97S
EASTON         MOSUNNY   81  57  44 W6        30.01S
CAMBRIDGE      SUNNY     77  54  44 SW6       29.98S
SALISBURY      SUNNY     79  50  36 NW8       29.98S
OCEAN CITY     MOSUNNY   77  54  44 NW7       29.98S
WALLOPS ISLAND FAIR      80  33  18 W10       29.99S
ACCOMACK*      FAIR      77  50  38 CALM      30.01S
$$

NCZ012>017-030>032-242100-
NORTH CENTRAL AND EASTERN NORTH CAROLINA

CITY           SKY/WX    TMP DP  RH WIND       PRES   REMARKS
ROANOKE RAPIDS FAIR      81  54  39 W12G17    30.06S
RALEIGH        MOSUNNY   82  51  34 CALM      30.09F
ELIZABETH CITY SUNNY     82  56  40 W9G18     30.03F
AHOSKIE*       SUNNY     80  56  43 CALM      30.05F
EDENTON*       SUNNY     82  59  45 W6        30.06S
CURRITUCK*     MOSUNNY   82  54  37 W5        30.04F
KILL DEVIL HLS SUNNY     81  53  37 W6        30.04F
MANTEO         SUNNY     79  55  42 NW7       30.06S
CAPE HATTERAS  SUNNY     73  62  68 SW12G21   30.09S
TARBORO*       FAIR      84  53  34 W7        30.07F
GOLDSBORO      SUNNY     84  51  31 W9        30.07F
WASHINGTON     SUNNY     81  55  41 W7        30.07F
GREENVILLE     SUNNY     82  54  36 W5        30.09S
NEW BERN       SUNNY     82  55  39 W8        30.09F
WILMINGTON     PTSUNNY   80  57  45 S10       30.11F
$$

VAZ048-242100-
ELSEWHERE

CITY           SKY/WX    TMP DP  RH WIND       PRES   REMARKS
HARRISBURG PA  PTSUNNY   81  47  30 W12G22    29.93F
BALTIMORE      PTSUNNY   81  48  31 W18G25    29.96S
ANNAPOLIS      SUNNY     79  46  31 NW12      29.96S
ANDREWS AFB    FAIR      81  47  30 NW14G28   29.98S
PHILADELPHIA   PTSUNNY   82  44  26 NW16G22   29.91S
HENDERSON NC   SUNNY     78  53  42 W7        30.08F
GREENSBORO     MOSUNNY   78  47  33 W8        30.10F
ROCKY MOUNT    MOSUNNY   82  51  34 W9        30.07F
$$

VAZ100-242100-
MARINE

STATION/POSITION TIME  TEMP    WIND        PRES    WAVE   SWELL
                       AIR SEA DIR/SP/G            HT/PER HT/PER
                 (UTC) (F)     (DEG/KT/KT) (MB)    (FT/S) (FT/S)
BRANDYWINE LGT   1900   69     210/  5/  6 1014.7F
CAPE MAY NJ      1900   66 64  260/  3/  3 1014.6F
LEWES DE         1900   74 60  310/  7/ 10 1014.5F
15NM E FENWICK I 1950   62 58              1015.2F   3/ 8
OCEAN-CITY-INLET 1900   73 60  320/  4/  6 1014.5F
WACHAPREAGUE VA  1900   77 70  340/  5/  9 1015.7F
THOMAS POINT MD  2000   72 63  200/ 11/ 11 1016.0S
GOOSES REEF MD   2000   71 65  180/  6/  8 1016.2F   0
COVE POINT MD    1900   72     130/  1/  3 1016.0F
SOLOMONS ISLAND  1900   78 63  340/  5/  7   N/A
BISHOPS HEAD MD  1900   69 70  230/  7/  8 1015.7F
PINEY POINT MD   1900          310/ 12/ 13   N/A
POTOMAC MD       2000   71 65  300/  6/  8 1014.9R   0
CAMBRIDGE MD     1900   73 63  340/  4/  5 1014.4F
LEWISETTA VA     1900   77 64  320/ 12/ 15 1015.5F
RAPPAHANNOCK LGT 1900           30/  4/  5 1016.8S
STINGRAY PT      2000   71 66  110/  6/  8 1016.5S   1
YORK RVR RNG VA  1900   75     260/ 12/ 12 1015.6F
YORKTOWN VA      1900   76 64  300/  6/  7 1016.1F
JAMESTOWN VA     2000   77 69  270/  8/  8   N/A     0
DOMINION TERM VA 1900   76     330/  7/  9 1016.7F
KIPTOPEKE VA     1900      64  240/  6/  8   N/A
CHES BAY BRIDGE  1900   73 65  240/ 12/ 13 1016.5F
CAPE HENRY VA    1900   78     270/ 11/ 14   N/A
CHESAPEAKE LGHT  1900   72     290/ 14/ 14 1017.5S
WILLOUBY STN VA  1900   74     260/  7/  9 1017.6F
CAPE HENRY BUOY  1912      63                N/A     2/10
1ST LANDING BUOY 2000   72 66  260/  8/ 10 1016.5F   1/ 3
CAPE CHARLES BUO 1926      63                N/A     2/ 9   2/ 9
OFFSHORE WE BUOY 1921      61                N/A     3/ 9   2/ 9
64NM E OF VA BCH 1950   62 57  230/ 10/ 12 1016.8F   3/ 8   3/ 8
DUCK PIER NC     1900   74 61  240/ 12/ 15 1016.9R
44100 DUCK FRF   1924      61                N/A     3/10   2/11
44056 DUCK FRF   1911      63                N/A     2/10   2/11
OREGON INLET NC  1900   70 64  190/ 13/ 17 1017.8S
HATTERAS NC      1900   71 66  210/ 10/ 13 1018.5F
DIAMOND SHLS NC  1950   72 79  230/ 16/ 19 1018.9F   3/10   3/10
C1F1C2F2C3F3C4F4C5F5C6F6C7F7C8M1C9!



USA.gov is the U.S. government's official web portal to all federal, state and local government web resources and services.